"Pseudo-MPEC" for P10OpTN

Created 2019 Jun 17 16:07:52 UT using Find_Orb

Click here for an explanation of pseudo-MPECs

 
 Astrometry: 
     P10OpTN  C2019 05 31r:wKD.8AyG^(Hsj[iuV`WhJJTgL(I,AstrometryL2Dm1k,:abZFF51
     P10OpTN  C2019 05 31DR6s.vPQxUU,v[3$_s+q=R(b8vJo9^;77+0y\:*4I:AFu.JZ'/QDF51
     P10OpTN  C2019 05 31b4,T0VIIo?`,JJ_,ejAh*b4Yp9:QHEudY[?jlhma-.G2X,wP9fZUF51
     P10OpTN  C2019 05 31nK9.VSQ3gEWYhJ@O2AakMZB$s.8Oc,TVn1rHy5)xl@p6p]W1N+EJF51
     P10OpTN ^C2019 06 03.59979620 19 40.321-31 12 13.21   ~63MM 21.19GVNEOCP568
     P10OpTN ^C2019 06 03.60080520 19 40.602-31 12 11.46   ~63MM 21.18GVNEOCP568
     P10OpTN ^C2019 06 03.60182020 19 40.879-31 12 09.68   ~63MM 21.21GVNEOCP568
     P10OpTN ^C2019 06 03.60282620 19 41.158-31 12 07.93   ~63MM 21.29GVNEOCP568
     P10OpTN KC2019 06 06c?YUHvbVRVg%X^XGgV9*Qd@GGR2O]XSQredacted;fUybqUo(wt`J04
     P10OpTN KC2019 06 06[R.b!`9?[:@3MIJ_#$6iYiRQx!3OuMdM[gi7')0CQOJS/WWyGkBSJ04
     P10OpTN |C2019 06 06BAT/p)\[0ry/]\sJ)*%]n6nm]_jj[1xj['Mp7ELk.0M'0-,98eP,807
     P10OpTN |C2019 06 06!yS9^C]t.\D=E:UDARQM4a[tTM__Y:^f-vdkpr'ipD4ey3,Se]'S807
     P10OpTN |C2019 06 06xb',i@kH[OhBLR3v%:eu_T`8gFl,]M:[iABXb3wcH?i!-eZ!+/:_807
     P10OpTN  C2019 06 06.42815 20 33 24.99 -29 45 06.8    ~66Aq       VNEOCPI52
     P10OpTN  C2019 06 06.43169 20 33 25.95 -29 45 01.0    ~66Aq       VNEOCPI52
     P10OpTN  C2019 06 06.43523 20 33 26.95 -29 44 54.5    ~66Aq 21.4 GVNEOCPI52
     P10OpTN  C2019 06 06.43876 20 33 27.90 -29 44 46.8    ~66Aq 21.3 GVNEOCPI52
     P10OpTN  C2019 06 08JSLpy2TLLion1M0E--bUQ0gpji!):J6@tiSNoclick%rdM)77(DDF51
     P10OpTN  C2019 06 08D%OdlFU5G/s3/\-y56no.YBkJ4NoXrI7H3^nBMo+F1VnL/]bWRJ6F51
     P10OpTN KC2019 06 09O;aci0ubYgdF%XCR'NymmU;?x[u+here+2ZMwj7L,J9ppr(9KchJ291
     P10OpTN KC2019 06 09V5Yq.wJirUN^iNe@rlXL`NwX0j)N2S*GfVUcx\[L@$U`D'b6`ivh291
     P10OpTN KC2019 06 09f/S0l'C1DfAPGRf\Y,`hF*o/uUxKDZwNMXKMCpmeJCfV/I5pc#nM291
     P10OpTN  C2019 06 14%C(WnuOW$V5)]YyPx#NdZ]gI-QM$y)B\a6c6?t:O0x2Cw=AUk+5(F51
     P10OpTN  C2019 06 14s86$e:W?wyV^isOcmC8#A%sBANg'=oTU+XforuyinwhJ51Ct7bgnF51
     P10OpTN  C2019 06 14)FoBj*/qG$%Wd7RcF:Hq*ZnH.+0O:uIpq9Ue+D3o\explanationF51

Station data:
(291) LPL/Spacewatch II  (N31.961669 W111.599905)  US/Arizona.  Observers J.
   V. Scotti, R. S. McMillan. 1.8-m f/2.7 reflector + CCD.
(568) Mauna Kea  (N19.826116 W155.472200)  US/Hawaii.
(807) Cerro Tololo Observatory, La Serena  (S30.169136 W70.805900)  Chile.
(F51) Pan-STARRS 1, Haleakala  (N20.707235 W156.255910)  US/Hawaii.
   Observers N. Primak, A. Schultz, S. Watters, J. Thiel, T. Goggia. Measurer
   PS1 Science Consortium. 1.8-m Ritchey-Chrétien + CCD.
(I52) Steward Observatory, Mt. Lemmon Station  (N32.442547 W110.788920)
   US/Arizona.  Observers T. A. Pruyne, B. M. Africano, E. J. Christensen, G.
   A. Farneth, D. C. Fuls, A. R. Gibbs, A. D. Grauer, H. Groeller, J. A.
   Johnson, R. A. Kowalski, S. M. Larson, G. J. Leonard, R. L. Seaman, F. C.
   Shelly. 1.0-m reflector + CCD.
(J04) ESA Optical Ground Station, Tenerife  (N28.300924 W16.511830)  Canary
   Islands (Spain).  Observer D. Abreu. Measurers M. Micheli, D. Koschny, E.
   Schwab, M. Busch, A. Knöfel. 1.0-m f/4.4 reflector + CCD.

Orbital elements:  P10OpTN
   Perihelion 2019 Jun 30.705081 +/- 0.00714 TT = 16:55:19 (JD 2458665.205081)
Epoch 2019 Jun 14.0 TT = JDT 2458648.5   Earth MOID: 0.1384   AutoNEOCP
M 354.84287357 +/- 0.019            (J2000 ecliptic)
n   0.30871604 +/- 0.00105          Peri.  357.94720 +/- 0.009
a   2.16818624 +/- 0.00493          Node   288.56128 +/- 0.014
e   0.4672680 +/- 0.00109           Incl.    5.02435 +/- 0.006
P   3.19                   H 22.7   G  0.15   U  8.1  
q 1.15506199 +/- 0.000254    Q 3.18131049 +/- 0.00968
From 25 observations 2019 May 31-June 14; mean residual 0".31
Residuals in arcseconds: 
190531 F51  .22-  .01-    190606 J04  .08+  .22+    190608 F51  .31+  .03-    
190531 F51  .17-  .03+    190606 807  .15+  .32-    190609 291  1.4-  .38-    
190531 F51  .41+  .16+    190606 807  .13+  .01-    190609 291  .35+  .22+    
190531 F51  .18-  .03+    190606 807  .01-  .13-    190609 291  .24+  .42+    
190603 568  .06+  .01-    190606 I52  .13-  .65+    190614 F51  .34-  .05-    
190603 568  .09+  .03-    190606 I52  .27-  .44-    190614 F51  .26-  .46-    
190603 568  .03+  .02-    190606 I52  .11+  .84-    190614 F51  .01+  .10+    
190603 568  .04+  .03-    190606 I52  .13-  .02-    
190606 J04  .14-  .18+    190608 F51  .10-  .06+    

Ephemerides (geocentric):
Date (UTC) HH   RA              Dec         delta   r     elong  mag " sig PA
---- -- -- --  -------------   -----------  ------ ------ -----  --- ---- ---
2019 06 17 16  21 24 37.728   -22 23 55.92  .21535 1.1638 129.1 21.3 .485 170
2019 06 17 17  21 24 48.257   -22 22 04.43  .21530 1.1638 129.1 21.3 .490 170
2019 06 17 18  21 24 58.778   -22 20 12.87  .21524 1.1637 129.1 21.3 .495 170
2019 06 17 19  21 25 09.291   -22 18 21.24  .21519 1.1636 129.1 21.3 .500 170
2019 06 17 20  21 25 19.796   -22 16 29.54  .21513 1.1636 129.1 21.3 .505 170
2019 06 17 21  21 25 30.293   -22 14 37.76  .21508 1.1635 129.1 21.3 .510 170
2019 06 17 22  21 25 40.782   -22 12 45.91  .21502 1.1635 129.1 21.3 .515 171
2019 06 17 23  21 25 51.264   -22 10 53.99  .21497 1.1634 129.1 21.3 .520 171
2019 06 18 00  21 26 01.738   -22 09 01.99  .21491 1.1634 129.0 21.3 .525 171
2019 06 18 01  21 26 12.203   -22 07 09.93  .21486 1.1633 129.0 21.3 .530 171
2019 06 18 02  21 26 22.661   -22 05 17.79  .21481 1.1633 129.0 21.3 .535 171
2019 06 18 03  21 26 33.111   -22 03 25.59  .21475 1.1632 129.0 21.3 .540 171
2019 06 18 04  21 26 43.553   -22 01 33.31  .21470 1.1632 129.0 21.3 .545 171
2019 06 18 05  21 26 53.987   -21 59 40.97  .21465 1.1631 129.0 21.3 .550 171
2019 06 18 06  21 27 04.413   -21 57 48.55  .21459 1.1631 129.0 21.3 .555 171
2019 06 18 07  21 27 14.831   -21 55 56.07  .21454 1.1630 129.0 21.3 .561 171
2019 06 18 08  21 27 25.241   -21 54 03.51  .21449 1.1629 129.0 21.3 .566 171
2019 06 18 09  21 27 35.643   -21 52 10.89  .21443 1.1629 129.0 21.3 .571 171
2019 06 18 10  21 27 46.037   -21 50 18.20  .21438 1.1628 129.0 21.3 .577 172
2019 06 18 11  21 27 56.423   -21 48 25.44  .21433 1.1628 129.0 21.3 .582 172
2019 06 18 12  21 28 06.800   -21 46 32.62  .21428 1.1627 129.0 21.3 .587 172
2019 06 18 13  21 28 17.170   -21 44 39.72  .21423 1.1627 129.0 21.3 .593 172
2019 06 18 14  21 28 27.532   -21 42 46.76  .21417 1.1626 128.9 21.3 .598 172
2019 06 18 15  21 28 37.885   -21 40 53.74  .21412 1.1626 128.9 21.3 .603 172
2019 06 18 16  21 28 48.231   -21 39 00.64  .21407 1.1625 128.9 21.3 .609 172
2019 06 18 17  21 28 58.568   -21 37 07.49  .21402 1.1625 128.9 21.3 .614 172
2019 06 18 18  21 29 08.898   -21 35 14.26  .21397 1.1624 128.9 21.3 .620 172
2019 06 18 19  21 29 19.219   -21 33 20.97  .21392 1.1624 128.9 21.3 .625 172
2019 06 18 20  21 29 29.532   -21 31 27.62  .21387 1.1623 128.9 21.3 .631 172
2019 06 18 21  21 29 39.836   -21 29 34.20  .21382 1.1623 128.9 21.3 .637 172
2019 06 18 22  21 29 50.133   -21 27 40.72  .21377 1.1622 128.9 21.3 .642 172
2019 06 18 23  21 30 00.421   -21 25 47.17  .21372 1.1622 128.9 21.3 .648 172
2019 06 19 00  21 30 10.702   -21 23 53.56  .21367 1.1621 128.9 21.3 .654 173
2019 06 19 01  21 30 20.974   -21 21 59.89  .21362 1.1621 128.9 21.3 .659 173
2019 06 19 02  21 30 31.237   -21 20 06.15  .21357 1.1620 128.9 21.3 .665 173
2019 06 19 03  21 30 41.493   -21 18 12.36  .21352 1.1620 128.9 21.3 .671 173
2019 06 19 04  21 30 51.740   -21 16 18.50  .21347 1.1619 128.9 21.3 .677 173
2019 06 19 05  21 31 01.979   -21 14 24.57  .21342 1.1619 128.8 21.3 .683 173
2019 06 19 06  21 31 12.210   -21 12 30.59  .21338 1.1618 128.8 21.3 .688 173
2019 06 19 07  21 31 22.432   -21 10 36.55  .21333 1.1618 128.8 21.3 .694 173
2019 06 19 08  21 31 32.646   -21 08 42.44  .21328 1.1617 128.8 21.3 .700 173
2019 06 19 09  21 31 42.852   -21 06 48.28  .21323 1.1617 128.8 21.3 .706 173
2019 06 19 10  21 31 53.049   -21 04 54.05  .21318 1.1616 128.8 21.3 .712 173
2019 06 19 11  21 32 03.238   -21 02 59.76  .21314 1.1616 128.8 21.3 .718 173
2019 06 19 12  21 32 13.419   -21 01 05.42  .21309 1.1615 128.8 21.3 .724 173
2019 06 19 13  21 32 23.591   -20 59 11.02  .21304 1.1615 128.8 21.3 .730 173
2019 06 19 14  21 32 33.755   -20 57 16.55  .21300 1.1614 128.8 21.3 .736 174
2019 06 19 15  21 32 43.911   -20 55 22.03  .21295 1.1614 128.8 21.3 .742 174